Home > Time Zones > World Clock > Weather > Peru > Ica > Past weeks

Flag for Peru Weather past 2 weeks in Ica, Ica, Peru

Now
63 °F

Fog.


Feels Like: 63 °F
Forecast: 62 / 85 °F
Wind: 5 mph from Northwest

Location: Pisco Airport

Current Time: Sep 17, 2014 at 9:24:43 AM

Latest Report: Sep 17, 2014 at 9:00 AM


Visibility: 3 mi

Pressure: 30.04 "Hg

Humidity: 88%

Dew point: 59 °F

Location of IcaLocation

Historic Weather in Ica — Graph

°F

Ica temperature yesterday

Maximum temperature yesterday: 66 °F (at 2:00 PM)
Minimum temperature yesterday: 61 °F (at 3:00 AM)
Average temperature yesterday: 63 °F

Past Weeks' High & Low Weather Summary

 TemperatureHumidityPressure
High72 °F (Sep 5, 4:00 PM)94% (Sep 12, 5:00 AM)30.04 "Hg (Sep 12, 5:00 AM)
Low54 °F (Sep 11, 5:00 AM)42% (Sep 5, 12:00 AM)29.80 "Hg (Sep 11, 3:00 PM)
Average63 °F81%29.95 "Hg
* Reported Sep 2 8:00 AM — Sep 17 8:00 AM, Ica, Weather by CustomWeather, © 2014

Note: Actual official high and low records may vary slightly from our data, if they occured in-between our weather recording intervals... More about our weather records

Advertising

Ica weather history for previous 24 hours

 ConditionsComfort  
Time TempWeatherWind HumidityBarometerVisibility
8:00 AM
Sep 17
63 °FFog.No wind88%30.04 "Hg2 mi
7:00 AM61 °FFog.1 mph94%30.01 "Hg2 mi
6:00 AM61 °FDrizzle. Fog.1 mph94%29.98 "Hg2 mi
5:00 AM61 °FDrizzle. Fog.1 mph94%29.98 "Hg2 mi
4:00 AM61 °FFog.2 mph94%29.98 "Hg3 mi
3:00 AM61 °FLow clouds.3 mph88%29.98 "Hg4 mi
2:00 AM61 °FLow clouds.2 mph88%29.98 "Hg4 mi
1:00 AM63 °FMostly cloudy.3 mph83%30.01 "Hg4 mi
12:00 AM63 °FMostly cloudy.5 mph83%30.01 "Hg5 mi
11:00 PM
Sep 16
63 °FPartly cloudy.6 mph83%30.01 "Hg5 mi
10:00 PM63 °FPassing clouds.8 mph83%30.01 "HgN/A
9:00 PM63 °FClear.9 mph83%30.01 "HgN/A
8:00 PM63 °FClear.9 mph83%29.98 "HgN/A
7:00 PM63 °FClear.8 mph83%29.95 "Hg5 mi
6:00 PM64 °FClear.9 mph78%29.95 "Hg10 mi
5:00 PM66 °FPassing clouds.6 mph73%29.92 "HgN/A
2:00 PM66 °FPassing clouds.9 mph73%29.95 "HgN/A
1:00 PM64 °FOvercast.9 mph83%29.98 "Hg5 mi
12:00 PM64 °FOvercast.7 mph83%30.01 "Hg5 mi
11:00 AM63 °FFog.7 mph88%30.04 "Hg3 mi
10:00 AM63 °FFog.7 mph88%30.04 "Hg3 mi
9:00 AM63 °FFog.5 mph88%30.04 "Hg2 mi
Weather by CustomWeather, © 2014

See weather overviewHow to use our weather pages